Flight Track Log - Related Links

Times and Time Zones

All times are in EDT time to prevent confusion due to time zone crossing. See the N27901 flight status page for this flight to view local times or setup timezone preferences in your user account.

Time Position Orientation Groundspeed Altitude Reporting Facility
EDT Latitude Longitude Course Direction KTS MPH feet Rate Location/Type
Sun 07:02:24 AM 29.9725 -95.3485 148° Southeast 170 196 100  Level FlightAware ADS-B
Sun 07:02:32 AM 29.9671 -95.3452 152° Southeast 169 194 500 3,231 Climbing FlightAware ADS-B
Sun 07:02:37 AM 29.9636 -95.3436 158° South 172 198 800 3,600 Climbing FlightAware ADS-B
Sun 07:02:52 AM 29.9511 -95.3434 179° South 184 212 1,700 3,158 Climbing FlightAware ADS-B
Sun 07:02:56 AM 29.9478 -95.3448 200° South 191 220 1,800 2,667 Climbing FlightAware ADS-B
Sun 07:03:01 AM 29.9436 -95.3475 209° Southwest 209 241 2,100 3,333 Climbing FlightAware ADS-B
Sun 07:03:05 AM 29.9404 -95.3503 217° Southwest 218 251 2,300 3,000 Climbing FlightAware ADS-B
Sun 07:03:11 AM 29.9360 -95.3549 222° Southwest 225 259 2,600 2,727 Climbing FlightAware ADS-B
Sun 07:03:27 AM 29.9226 -95.3701 225° Southwest 262 302 3,300 2,438 Climbing FlightAware ADS-B
Sun 07:03:43 AM 29.9082 -95.3864 224° Southwest 281 323 3,900 3,097 Climbing FlightAware ADS-B
Sun 07:03:58 AM 29.8938 -95.4023 224° Southwest 284 327 4,900 5,032 Climbing FlightAware ADS-B
Sun 07:04:14 AM 29.8790 -95.4180 223° Southwest 278 320 6,500 5,091 Climbing FlightAware ADS-B
Sun 07:04:31 AM 29.8624 -95.4354 222° Southwest 285 328 7,700 4,421 Climbing FlightAware ADS-B
Sun 07:04:33 AM 29.8610 -95.4370 225° Southwest 273 314 7,900 4,909 Climbing FlightAware ADS-B
Sun 07:04:42 AM 29.8508 -95.4474 221° Southwest 291 335 8,600 5,077 Climbing FlightAware ADS-B
Sun 07:04:46 AM 29.8468 -95.4519 224° Southwest 292 336 9,000 4,800 Climbing FlightAware ADS-B
Sun 07:04:52 AM 29.8418 -95.4585 229° Southwest 293 337 9,400 4,400 Climbing FlightAware ADS-B
Sun 07:05:01 AM 29.8348 -95.4707 237° Southwest 292 336 10,100 4,714 Climbing FlightAware ADS-B
Sun 07:05:06 AM 29.8320 -95.4778 246° West 291 335 10,500 3,600 Climbing FlightAware ADS-B
Sun 07:05:11 AM 29.8303 -95.4840 252° West 293 337 10,700 3,750 Climbing FlightAware ADS-B
Sun 07:05:14 AM 29.8294 -95.4889 258° West 294 338 11,000 4,800 Climbing FlightAware ADS-B
Sun 07:05:16 AM 29.8290 -95.4930 264° West 278 320 11,100 3,600 Climbing FlightAware ADS-B
Sun 07:05:19 AM 29.8290 -95.4967 270° West 294 338 11,300 4,286 Climbing FlightAware ADS-B
Sun 07:05:23 AM 29.8293 -95.5027 273° West 295 339 11,600 4,875 Climbing FlightAware ADS-B
Sun 07:05:35 AM 29.8323 -95.5223 280° West 300 345 12,600 4,378 Climbing FlightAware ADS-B
Sun 07:06:00 AM 29.8380 -95.5610 280° West 317 365 14,300 3,871 Climbing FlightAware ADS-B
Sun 07:06:06 AM 29.8396 -95.5727 279° West 314 361 14,600 2,813 Climbing FlightAware ADS-B
Sun 07:06:32 AM 29.8461 -95.6149 280° West 321 369 15,800 2,889 Climbing FlightAware ADS-B
Sun 07:06:33 AM 29.8460 -95.6160 264° West 238 274 15,900 4,800 Climbing FlightAware ADS-B
Sun 07:07:02 AM 29.8541 -95.6656 281° West 318 366 18,200 4,688 Climbing FlightAware ADS-B
Sun 07:07:05 AM 29.8530 -95.6620 109° East 189 217 18,400 4,839 Climbing FlightAware ADS-B
Sun 07:07:33 AM 29.8621 -95.7159 281° West 307 353 20,700 4,800 Climbing FlightAware ADS-B
Sun 07:07:35 AM 29.8630 -95.7190 289° West 286 329 20,800 2,323 Climbing FlightAware ADS-B
Sun 07:08:04 AM 29.8696 -95.7656 279° West 312 359 21,900 1,946 Climbing FlightAware ADS-B
Sun 07:08:12 AM 29.8720 -95.7790 282° West 335 386 22,000 200 Climbing FlightAware ADS-B
Sun 07:08:34 AM 29.8781 -95.8157 281° West 314 361 22,000  Level FlightAware ADS-B
Sun 07:08:47 AM 29.8820 -95.8360 282° West 290 334 22,000  Level FlightAware ADS-B
Sun 07:09:04 AM 29.8864 -95.8643 280° West 307 353 22,000  Level FlightAware ADS-B
Sun 07:09:24 AM 29.8920 -95.8950 282° West 337 388 22,000  Level FlightAware ADS-B
Sun 07:09:35 AM 29.8946 -95.9138 279° West 304 350 22,000  Level FlightAware ADS-B
Sun 07:09:59 AM 29.9010 -95.9520 281° West 300 345 22,000  Level FlightAware ADS-B
Sun 07:10:05 AM 29.9026 -95.9622 280° West 304 350 22,000  Level FlightAware ADS-B
Sun 07:10:36 AM 29.9105 -96.0103 281° West 304 350 22,000  Level FlightAware ADS-B
Sun 07:10:55 AM 29.9160 -96.0410 282° West 316 364 22,000  Level FlightAware ADS-B
Sun 07:11:06 AM 29.9185 -96.0586 279° West 304 350 22,000  Level FlightAware ADS-B
Sun 07:11:29 AM 29.9244 -96.0945 281° West 304 350 22,000  Level FlightAware ADS-B
Sun 07:11:52 AM 29.9305 -96.1317 281° West 304 350 22,000  Level FlightAware ADS-B
Sun 07:12:12 AM 29.9360 -96.1630 281° West 22,000  Level FlightAware ADS-B
Sun 07:12:22 AM 29.9384 -96.1802 279° West 305 351 22,000 -293 Level FlightAware ADS-B
Sun 07:12:53 AM 29.9463 -96.2284 281° West 305 351 21,800 -514 Descending FlightAware ADS-B
Sun 07:12:57 AM 29.9480 -96.2360 284° West 303 349 21,700 -1,200 Descending FlightAware ADS-B
Sun 07:13:23 AM 29.9541 -96.2765 280° West 304 350 21,200 -1,350 Descending FlightAware ADS-B
Sun 07:13:37 AM 29.9580 -96.2990 281° West 336 387 20,800 -1,385 Descending FlightAware ADS-B
Sun 07:13:49 AM 29.9604 -96.3183 278° West 303 349 20,600 -1,000 Descending FlightAware ADS-B
Sun 07:14:13 AM 29.9650 -96.3570 278° West 316 364 20,200 -1,200 Descending FlightAware ADS-B
Sun 07:14:19 AM 29.9654 -96.3665 273° West 307 353 20,000 -833 Descending FlightAware ADS-B
Sun 07:14:49 AM 29.9705 -96.4157 277° West 308 354 19,700 -689 Descending FlightAware ADS-B
Sun 07:15:20 AM 29.9755 -96.4649 277° West 306 352 19,300 -800 Descending FlightAware ADS-B
Sun 07:15:34 AM 29.9770 -96.4850 275° West 310 357 19,100 -857 Descending FlightAware ADS-B
Sun 07:15:48 AM 29.9800 -96.5108 278° West 307 353 18,900 -714 Descending FlightAware ADS-B
Sun 07:16:16 AM 29.9844 -96.5558 276° West 305 351 18,600 -724 Descending FlightAware ADS-B
Sun 07:16:46 AM 29.9892 -96.6052 276° West 307 353 18,200 -885 Descending FlightAware ADS-B
Sun 07:17:17 AM 29.9941 -96.6554 276° West 307 353 17,700 -984 Descending FlightAware ADS-B
Sun 07:17:21 AM 29.9950 -96.6610 281° West 17,600 -1,000 Descending FlightAware ADS-B
Sun 07:17:47 AM 29.9989 -96.7045 276° West 310 357 17,200 -964 Descending FlightAware ADS-B
Sun 07:18:17 AM 30.0038 -96.7540 277° West 308 354 16,700 -1,279 Descending FlightAware ADS-B
Sun 07:18:48 AM 30.0086 -96.8040 276° West 307 353 15,900 -1,548 Descending FlightAware ADS-B
Sun 07:19:19 AM 30.0135 -96.8546 276° West 308 354 15,100 -1,548 Descending FlightAware ADS-B
Sun 07:19:50 AM 30.0183 -96.9050 276° West 307 353 14,300 -1,548 Descending FlightAware ADS-B
Sun 07:20:21 AM 30.0230 -96.9546 276° West 306 352 13,500 -1,475 Descending FlightAware ADS-B
Sun 07:20:51 AM 30.0276 -97.0037 276° West 305 351 12,800 -1,500 Descending FlightAware ADS-B
Sun 07:21:21 AM 30.0322 -97.0526 276° West 303 349 12,000 -1,545 Descending FlightAware ADS-B
Sun 07:21:57 AM 30.0370 -97.1070 276° West 299 344 11,100 -1,395 Descending FlightAware ADS-B
Sun 07:22:47 AM 30.0450 -97.1850 277° West 294 338 10,000 -1,260 Descending FlightAware ADS-B
Sun 07:23:37 AM 30.0520 -97.2610 276° West 288 331 9,000 -1,429 Descending FlightAware ADS-B
Sun 07:24:32 AM 30.0480 -97.3490 267° West 296 341 7,500 -1,543 Descending FlightAware ADS-B
Sun 07:25:22 AM 30.0390 -97.4270 262° West 294 338 6,300 -1,397 Descending FlightAware ADS-B
Sun 07:25:45 AM 30.0350 -97.4635 263° West 284 327 5,800 -1,421 Descending FlightAware ADS-B
Sun 07:26:00 AM 30.0331 -97.4861 264° West 279 321 5,400 -1,548 Descending FlightAware ADS-B
Sun 07:26:16 AM 30.0318 -97.5099 266° West 281 323 5,000 -1,235 Descending FlightAware ADS-B
Sun 07:26:34 AM 30.0304 -97.5369 267° West 282 325 4,700 -1,313 Descending FlightAware ADS-B
Sun 07:26:48 AM 30.0298 -97.5582 268° West 279 321 4,300 -1,400 Descending FlightAware ADS-B
Sun 07:27:04 AM 30.0292 -97.5813 268° West 266 306 4,000 -1,125 Descending FlightAware ADS-B
Sun 07:27:20 AM 30.0284 -97.6028 268° West 253 291 3,700 -1,091 Descending FlightAware ADS-B
Sun 07:27:26 AM 30.0283 -97.6110 269° West 247 284 3,600 -667 Descending FlightAware ADS-B
Sun 07:27:29 AM 30.0283 -97.6154 270° West 244 281 3,600 -750 Level FlightAware ADS-B
Sun 07:27:34 AM 30.0286 -97.6211 273° West 241 277 3,500 -667 Descending FlightAware ADS-B
Sun 07:27:38 AM 30.0290 -97.6264 275° West 238 274 3,500 -545 Level FlightAware ADS-B
Sun 07:27:45 AM 30.0300 -97.6354 277° West 236 272 3,400 -462 Descending FlightAware ADS-B
Sun 07:27:51 AM 30.0312 -97.6423 281° West 232 267 3,400 -429 Level FlightAware ADS-B
Sun 07:27:59 AM 30.0340 -97.6510 290° West 223 257 3,300 -500 Descending FlightAware ADS-B
Sun 07:28:03 AM 30.0362 -97.6557 298° West 216 249 3,300 -750 Level FlightAware ADS-B
Sun 07:28:07 AM 30.0385 -97.6597 304° West 212 244 3,200 -1,200 Descending FlightAware ADS-B
Sun 07:28:13 AM 30.0423 -97.6647 311° West 208 239 3,100 -1,091 Descending FlightAware ADS-B
Sun 07:28:18 AM 30.0452 -97.6679 316° Northwest 205 236 3,000 -1,200 Descending FlightAware ADS-B
Sun 07:28:23 AM 30.0493 -97.6714 324° Northwest 202 232 2,900 -960 Descending FlightAware ADS-B
Sun 07:28:43 AM 30.0658 -97.6782 340° North 201 231 2,600 -789 Descending FlightAware ADS-B
Sun 07:29:01 AM 30.0813 -97.6782 360° North 183 211 2,400 -1,200 Descending FlightAware ADS-B
Sun 07:29:18 AM 30.0941 -97.6773 North 167 192 1,900 -1,500 Descending FlightAware ADS-B
Sun 07:29:21 AM 30.0965 -97.6771 North 160 184 1,900 -923 Level FlightAware ADS-B
Sun 07:29:31 AM 30.1037 -97.6766 North 158 182 1,700 -1,091 Descending FlightAware ADS-B
Sun 07:29:43 AM 30.1120 -97.6767 359° North 155 178 1,500 -889 Descending FlightAware ADS-B
Sun 07:29:58 AM 30.1220 -97.6771 358° North 136 157 1,300 -558 Descending FlightAware ADS-B
Sun 07:30:26 AM 30.1383 -97.6774 359° North 120 138 1,100 -450 Descending FlightAware ADS-B
Sun 07:30:38 AM 30.1448 -97.6775 359° North 120 138 1,000 -522 Descending FlightAware ADS-B
Sun 07:30:49 AM 30.1512 -97.6777 358° North 121 139 900 -545 Descending FlightAware ADS-B
Sun 07:31:00 AM 30.1569 -97.6779 358° North 120 138 800 -381 Descending FlightAware ADS-B
Sun 07:31:52 AM 30.1830 -97.6790 358° North 122 140 500 -346 Descending FlightAware ADS-B

Login

Don't have an account? Register now (free) for customized features, flight alerts, and more!